FLOCK 1E-1

Last updated on May 18, 2016, 3:36 p.m. UTC

1 40723U 98067GF  16139.35447088  .42996614  12834-4  39618-3 0  9998
2 40723  51.6016 169.3152 0016192 306.1352  54.2420 16.50184805 48594

Satellite is not in orbit.